"Pseudo-MPEC" for P12oDgI

Created 2026 Aug 6 2:35:06 UT using Find_Orb

Click here for an explanation of pseudo-MPECs

 
 Astrometry: 
     P12oDgI*0C2026 07 24.58498423 16 56.022+00 59 17.66   ~7OHZ 21.96wXNEOCPF51
     P12oDgI 0C2026 07 24.59704523 16 55.839+00 59 24.80   ~7OHZ 21.84wXNEOCPF51
     P12oDgI 0C2026 07 24.60870823 16 55.662+00 59 31.55   ~7OHZ 21.60wXNEOCPF51
     P12oDgI 0C2026 07 26.49402323 16 27.189+01 17 50.86   ~7QHZ 22.12wXNEOCPF52
     P12oDgI 0C2026 07 26.50349123 16 27.006+01 17 56.37   ~7QHZ 22.00wXNEOCPF52
     P12oDgI 0C2026 07 26.52283323 16 26.637+01 18 07.08   ~7QHZ 21.74wXNEOCPF52

Station data:
(F51) Pan-STARRS 1, Haleakala  (N20.707234 W156.255910)  US/Hawaii.
   Observers J. Herman, T. Lowe, P. Minguez, A. Schultz, I. Smith. Measurers
   K. Chambers, T. de Boer, J. Fairlamb, H. Gao, M. Huber, C.-C. Lin, E.
   Magnier, Y. Ramanjooloo, R. Wainscoat, R. Weryk. 1.8-m Ritchey-Chrétien +
   CCD.
(F52) Pan-STARRS 2, Haleakala  (N20.707382 W156.255910)  US/Hawaii.
   Observers J. Herman, T. Lowe, P. Minguez, A. Schultz, I. Smith. Measurers
   K. Chambers, T. de Boer, J. Fairlamb, H. Gao, M. Huber, C.-C. Lin, E.
   Magnier, Y. Ramanjooloo, R. Wainscoat, R. Weryk. 1.8-m Ritchey-Chrétien +
   CCD.

Orbital elements:  P12oDgI
   Perihelion 2026 Apr 18.182714 +/- 134 TT =  4:23:06.5 (JD 2461148.682714)
Epoch 2026 Jul 26.0 TT = JDT 2461247.5   Ju: 0.8910   Sa: 0.1611
M   6.460454555 +/- 37              (J2000 ecliptic)             AutoNEOCP
n   0.065377777 +/- 0.0841          Peri.  333.891545 +/- 60
a   6.102614621 +/- 5.23            Node   319.516187 +/- 5.6
e   0.65466169 +/- 0.171            Incl.   16.614674 +/- 5.0
P  15.07558                H 18.08  G  0.15   U 11.1  SR
q 2.107466616 +/- 0.484    Q 10.09776262 +/- 3.5
From 6 observations 2026 July 24-26 (46.5 hr); mean residual 0".11
Residuals in arcseconds: 
260724 F51  .13-  .04+    260724 F51  .12+  .10-    260726 F52  .01-  .16+    
260724 F51  .00   .05+    260726 F52  .04+  .09+    260726 F52  .03-  .24-    

Ephemerides (geocentric):
Date (UTC) HH   RA             Dec           delta  r     elong  mag " sig PA
---- --------  ------------   ------------  ------ ------ -----  --- --------
2026 08 06 03  23 11 58.720   +02 50 27.48  1.4613 2.3494 142.6 21.6  397 112
2026 08 06 04  23 11 57.334   +02 50 46.95  1.4612 2.3496 142.7 21.6  400 112
2026 08 06 05  23 11 55.946   +02 51 06.41  1.4611 2.3497 142.7 21.6  403 112
2026 08 06 06  23 11 54.555   +02 51 25.85  1.4610 2.3499 142.7 21.6  405 112
2026 08 06 07  23 11 53.162   +02 51 45.27  1.4609 2.3501 142.8 21.6  408 112
2026 08 06 08  23 11 51.766   +02 52 04.67  1.4608 2.3503 142.8 21.6  411 112
2026 08 06 09  23 11 50.368   +02 52 24.05  1.4607 2.3504 142.9 21.6  414 112
2026 08 06 10  23 11 48.967   +02 52 43.41  1.4606 2.3506 142.9 21.6  417 112
2026 08 06 11  23 11 47.564   +02 53 02.76  1.4605 2.3508 142.9 21.6  420 112
2026 08 06 12  23 11 46.158   +02 53 22.08  1.4604 2.3509 143.0 21.6  423 112
2026 08 06 13  23 11 44.751   +02 53 41.39  1.4603 2.3511 143.0 21.6  426 112
2026 08 06 14  23 11 43.340   +02 54 00.68  1.4602 2.3513 143.1 21.6  429 112
2026 08 06 15  23 11 41.928   +02 54 19.94  1.4601 2.3514 143.1 21.6  432 112
2026 08 06 16  23 11 40.513   +02 54 39.19  1.4600 2.3516 143.2 21.6  435 112
2026 08 06 17  23 11 39.095   +02 54 58.42  1.4599 2.3518 143.2 21.6  438 112
2026 08 06 18  23 11 37.675   +02 55 17.64  1.4598 2.3520 143.2 21.6  441 112
2026 08 06 19  23 11 36.253   +02 55 36.83  1.4597 2.3521 143.3 21.6  444 112
2026 08 06 20  23 11 34.828   +02 55 56.00  1.4596 2.3523 143.3 21.6  448 112
2026 08 06 21  23 11 33.401   +02 56 15.16  1.4595 2.3525 143.4 21.6  451 112
2026 08 06 22  23 11 31.972   +02 56 34.29  1.4594 2.3526 143.4 21.6  454 112
2026 08 06 23  23 11 30.540   +02 56 53.41  1.4593 2.3528 143.4 21.6  457 112
2026 08 07 00  23 11 29.106   +02 57 12.51  1.4592 2.3530 143.5 21.6  460 112
2026 08 07 01  23 11 27.669   +02 57 31.58  1.4591 2.3531 143.5 21.6  463 112
2026 08 07 02  23 11 26.230   +02 57 50.64  1.4590 2.3533 143.6 21.6  466 112
2026 08 07 03  23 11 24.789   +02 58 09.68  1.4589 2.3535 143.6 21.6  469 112
2026 08 07 04  23 11 23.345   +02 58 28.71  1.4588 2.3537 143.6 21.6  473 112
2026 08 07 05  23 11 21.899   +02 58 47.71  1.4587 2.3538 143.7 21.6  476 112
2026 08 07 06  23 11 20.450   +02 59 06.69  1.4586 2.3540 143.7 21.6  479 111
2026 08 07 07  23 11 19.000   +02 59 25.66  1.4585 2.3542 143.8 21.6  482 111
2026 08 07 08  23 11 17.546   +02 59 44.60  1.4584 2.3543 143.8 21.6  485 111
2026 08 07 09  23 11 16.091   +03 00 03.53  1.4583 2.3545 143.9 21.6  489 111
2026 08 07 10  23 11 14.633   +03 00 22.43  1.4583 2.3547 143.9 21.6  492 111
2026 08 07 11  23 11 13.173   +03 00 41.32  1.4582 2.3548 143.9 21.6  495 111
2026 08 07 12  23 11 11.710   +03 01 00.19  1.4581 2.3550 144.0 21.6  498 111
2026 08 07 13  23 11 10.245   +03 01 19.04  1.4580 2.3552 144.0 21.6  502 111
2026 08 07 14  23 11 08.778   +03 01 37.87  1.4579 2.3554 144.1 21.6  505 111
2026 08 07 15  23 11 07.308   +03 01 56.68  1.4578 2.3555 144.1 21.6  508 111
2026 08 07 16  23 11 05.836   +03 02 15.47  1.4577 2.3557 144.1 21.6  511 111
2026 08 07 17  23 11 04.362   +03 02 34.24  1.4576 2.3559 144.2 21.6  515 111
2026 08 07 18  23 11 02.885   +03 02 53.00  1.4575 2.3560 144.2 21.6  518 111
2026 08 07 19  23 11 01.406   +03 03 11.73  1.4574 2.3562 144.3 21.6  521 111
2026 08 07 20  23 10 59.925   +03 03 30.45  1.4573 2.3564 144.3 21.6  525 111
2026 08 07 21  23 10 58.441   +03 03 49.14  1.4573 2.3566 144.3 21.6  528 111
2026 08 07 22  23 10 56.955   +03 04 07.82  1.4572 2.3567 144.4 21.6  531 111
2026 08 07 23  23 10 55.467   +03 04 26.48  1.4571 2.3569 144.4 21.6  535 111
2026 08 08 00  23 10 53.976   +03 04 45.12  1.4570 2.3571 144.5 21.6  538 111
2026 08 08 01  23 10 52.483   +03 05 03.73  1.4569 2.3572 144.5 21.6  542 111
2026 08 08 02  23 10 50.988   +03 05 22.33  1.4568 2.3574 144.5 21.6  545 111